Location: Poughquag
(41.6090°N, 73.6820°W)
Time: 12:36:13
(UTC-04:00)

Tiros 1 despin weight - Pass Details

Date: 05 June 2020
Orbit: 593 x 642 km, 48.2° (Epoch: 07 July)

Event Time Altitude Azimuth Distance (km) Brightness Sun altitude
Rises 14:08:24 0° 297° (WNW) 2,905 ? 65.4°
Reaches altitude 10° 14:10:44 10° 299° (WNW) 1,988 ? 65.1°
Maximum altitude 14:15:19 77° 26° (NNE) 632 ? 64.4°
Drops below altitude 10° 14:19:48 10° 113° (ESE) 1,950 ? 63.8°
Sets 14:22:04 0° 115° (ESE) 2,843 ? 63.5°
